This is the latest recevied weather packets stored in our database for station/object N0NPO. If no packets are shown the sender has not sent any weather packets the latest 10 day(s).
| Time | Temp. | Humidity | Pressure | Rain* | Wind** | Luminosity | Snow |
|---|---|---|---|---|---|---|---|
| 1778269300 | 21.11° C | 1% | 1012 hPa | 0 mm | - | 708 W/m² | - |
| 1778268997 | 21.11° C | 1% | 1011.9 hPa | 0 mm | - | 703 W/m² | - |
| 1778268694 | 21.11° C | 1% | 1011.8 hPa | 0 mm | - | 681 W/m² | - |
| 1778268391 | 20.56° C | 1% | 1011.8 hPa | 0 mm | - | 553 W/m² | - |
| 1778268088 | 21.11° C | 1% | 1011.7 hPa | 0 mm | - | 643 W/m² | - |
| 1778267785 | 21.11° C | 1% | 1011.8 hPa | 0 mm | - | 716 W/m² | - |
| 1778267481 | 21.11° C | 1% | 1011.9 hPa | 0 mm | - | 690 W/m² | - |
| 1778267179 | 21.11° C | 1% | 1011.7 hPa | 0 mm | - | 761 W/m² | - |
| 1778266875 | 20.56° C | 1% | 1011.7 hPa | 0 mm | - | 757 W/m² | - |
| 1778266572 | 20° C | 1% | 1011.6 hPa | 0 mm | - | 800 W/m² | - |
| 1778266269 | 20.56° C | 1% | 1011.6 hPa | 0 mm | - | 799 W/m² | - |
| 1778265967 | 20.56° C | 1% | 1011.8 hPa | 0 mm | - | 756 W/m² | - |
| 1778265664 | 20° C | 1% | 1011.7 hPa | 0 mm | - | 728 W/m² | - |
| 1778265360 | 20.56° C | 1% | 1011.7 hPa | 0 mm | - | 727 W/m² | - |
| 1778265056 | 20° C | 1% | 1011.8 hPa | 0 mm | - | 708 W/m² | - |
| 1778264752 | 20° C | 1% | 1011.9 hPa | 0 mm | - | 708 W/m² | - |
| 1778264450 | 20° C | 1% | 1011.7 hPa | 0 mm | - | 695 W/m² | - |
| 1778264144 | 20° C | 1% | 1011.6 hPa | 0 mm | - | 707 W/m² | - |
| 1778263842 | 20.56° C | 1% | 1011.9 hPa | 0 mm | - | 708 W/m² | - |
| 1778263538 | 20° C | 1% | 1011.8 hPa | 0 mm | - | 712 W/m² | - |
| 1778263235 | 20° C | 1% | 1011.8 hPa | 0 mm | - | 751 W/m² | - |
| 1778262931 | 20° C | 1% | 1011.8 hPa | 0 mm | - | 740 W/m² | - |
| 1778262629 | 20° C | 1% | 1011.8 hPa | 0 mm | - | 532 W/m² | - |
| 1778262326 | 20° C | 1% | 1011.9 hPa | 0 mm | - | 745 W/m² | - |
| 1778262023 | 19.44° C | 1% | 1011.9 hPa | 0 mm | - | 734 W/m² | - |
* Rain latest hour (hover to see other rain measurements)
** Current wind speed in m/s (hover to see current wind gust speed)